Poplar Bluff, MO

3:54 PM CDT on July 15, 2019 (GMT -0500)
Poplar Bluff Municipal

Weather History for KPOF - May, 2019

Change the Weather History Date:

Tuesday, May 28, 2019

  Actual Average Record
Temperature  
Mean Temperature 78 °F -  
Max Temperature 87 °F 80 °F 99 °F (1944)
Min Temperature 69 °F 59 °F 41 °F (1961)
Cooling Degree Days 13    
Growing Degree Days 28 (Base 50)    
Moisture  
Dew Point 68 °F    
Average Humidity 71    
Maximum Humidity 93    
Minimum Humidity 48    
Precipitation  
Precipitation 0.00 in - - ()
Sea Level Pressure  
Sea Level Pressure 29.79 in    
Wind  
Wind Speed 8 mph (SSW)    
Max Wind Speed 20 mph    
Max Gust Speed 32 mph    
Visibility 10 miles    
Events      
Averages and records for this station are not official NWS values.
T = Trace of Precipitation, MM = Missing Value Source: NWS Daily Summary

Daily Weather History Graph

Daily Weather History Graph

Search for Another Location

Airport or City:

Astronomy

May. 28, 2019 Rise Set
Actual Time 5:45 AM CDT 8:11 PM CDT
Civil Twilight 5:15 AM CDT 8:41 PM CDT
Nautical Twilight 4:38 AM CDT 9:18 PM CDT
Astronomical Twilight 3:58 AM CDT 9:59 PM CDT
Moon 2:46 AM CDT (5/28) 2:32 PM CDT (5/28)
Length of Visible Light 15h 26m
Length of Day
14h 26m
Waning Crescent, 31% of the Moon is Illuminated
May 28
Waning Crescent
Jun 3
New
Jun 10
First Quarter
Jun 17
Full
Jun 25
Last Quarter

Hourly Weather History & Observations

Time (CDT) Temp. Heat Index Dew Point Humidity Pressure Visibility Wind Dir Wind Speed Gust Speed Precip Events Conditions
12:53 AM 72.0 °F - 66.9 °F 84% 29.81 in 10.0 mi SSW 4.6 mph - N/A   Clear
1:53 AM 72.0 °F - 66.9 °F 84% 29.81 in 10.0 mi SSW 5.8 mph - N/A   Clear
2:53 AM 71.1 °F - 66.9 °F 87% 29.81 in 10.0 mi SSW 4.6 mph - N/A   Clear
3:53 AM 70.0 °F - 66.9 °F 90% 29.81 in 10.0 mi Calm Calm - N/A   Clear
4:53 AM 70.0 °F - 66.9 °F 90% 29.81 in 10.0 mi South 3.5 mph - N/A   Clear
5:53 AM 69.1 °F - 66.9 °F 93% 29.82 in 10.0 mi South 4.6 mph - N/A   Clear
6:53 AM 71.1 °F - 68.0 °F 90% 29.83 in 10.0 mi South 5.8 mph - N/A   Partly Cloudy
7:53 AM 75.0 °F - 70.0 °F 84% 29.83 in 10.0 mi SSW 6.9 mph - N/A   Scattered Clouds
8:53 AM 78.1 °F - 71.1 °F 79% 29.83 in 10.0 mi SSW 11.5 mph - N/A   Clear
9:32 AM 78.1 °F - 72.0 °F 81% 29.85 in 10.0 mi SSW 15.0 mph - N/A   Mostly Cloudy
9:53 AM 80.1 °F 83.8 °F 72.0 °F 76% 29.83 in 10.0 mi SSW 12.7 mph 23.0 mph N/A   Mostly Cloudy
10:12 AM 81.0 °F 85.2 °F 72.0 °F 74% 29.85 in 10.0 mi SSW 13.8 mph - N/A   Partly Cloudy
10:53 AM 81.0 °F 84.9 °F 71.1 °F 72% 29.84 in 9.0 mi SSW 17.3 mph - N/A   Mostly Cloudy
11:53 AM 82.0 °F 84.9 °F 68.0 °F 62% 29.83 in 10.0 mi SW 13.8 mph 25.3 mph N/A   Mostly Cloudy
12:53 PM 84.0 °F 86.5 °F 66.9 °F 56% 29.81 in 10.0 mi SW 15.0 mph 27.6 mph 0.00 in   Partly Cloudy
1:53 PM 86.0 °F 88.2 °F 66.0 °F 51% 29.78 in 10.0 mi SSW 18.4 mph 28.8 mph 0.00 in   Scattered Clouds
2:53 PM 87.1 °F 88.9 °F 64.9 °F 48% 29.77 in 10.0 mi SW 19.6 mph 32.2 mph 0.00 in   Partly Cloudy
3:53 PM 87.1 °F 89.2 °F 66.0 °F 49% 29.75 in 10.0 mi SW 17.3 mph 26.5 mph N/A   Scattered Clouds
4:53 PM 87.1 °F 89.2 °F 66.0 °F 49% 29.75 in 10.0 mi WSW 11.5 mph 28.8 mph N/A   Partly Cloudy
5:53 PM 87.1 °F 89.2 °F 66.0 °F 49% 29.74 in 10.0 mi SSW 13.8 mph - N/A   Unknown
6:53 PM 86.0 °F 88.2 °F 66.0 °F 51% 29.71 in 10.0 mi SSW 13.8 mph 25.3 mph N/A   Clear
7:53 PM 82.9 °F 85.8 °F 68.0 °F 60% 29.70 in 10.0 mi South 12.7 mph - N/A   Clear
8:53 PM 81.0 °F 83.8 °F 68.0 °F 65% 29.71 in 10.0 mi SSW 9.2 mph - N/A   Clear
9:53 PM 80.1 °F 82.9 °F 69.1 °F 69% 29.73 in 10.0 mi SSW 5.8 mph - N/A   Clear
10:53 PM 79.0 °F - 70.0 °F 74% 29.77 in 10.0 mi SW 4.6 mph - N/A   Clear
11:53 PM 77.0 °F - 70.0 °F 79% 29.77 in 10.0 mi Calm Calm - N/A   Clear